Flag for Austria Past Weather in Feldkirchen in Kärnten, Carinthia, Austria — Yesterday and Last 2 Weeks

Now
51 °F

Overcast.


Feels Like: N/A
Forecast: 40 / 70 °F
Wind: N/A

Location: Klagenfurt-Flughafen

Current Time: May 25, 2016 at 1:39:43 AM

Latest Report: May 25, 2016 at 1:00 AM


Visibility: 19 mi

Pressure: 29.90 "Hg (28.01 "Hg at 541m altitude)

Humidity: 95%

Dew Point: 50 °F

Location of Feldkirchen in KärntenLocation

Past Weather in Feldkirchen in Kärnten — Graph

°F

Feldkirchen in Kärnten Temperature Yesterday

Maximum temperature yesterday: 61 °F (at 4:00 PM)
Minimum temperature yesterday: 49 °F (at 7:00 AM)
Average temperature yesterday: 55 °F

High & Low Weather Summary for the Past Weeks

 TemperatureHumidityPressure
High81 °F (May 22, 5:00 PM)99% (May 11, 6:00 AM)30.22 "Hg (May 11, 6:00 AM)
Low38 °F (May 17, 6:00 AM)27% (May 21, 4:00 PM)29.35 "Hg (May 13, 3:00 PM)
Average56 °F70%29.86 "Hg
* Reported May 10 12:00 AM — May 25 12:00 AM, Feldkirchen in Kärnten, Weather by CustomWeather, © 2016

Note: Actual official high and low records may vary slightly from our data, if they occured in-between our weather recording intervals... More about our weather records

Advertising

Feldkirchen in Kärnten Weather History for the Previous 24 Hours

Scroll right to see more
 ConditionsComfort  
Time TempWeatherWind HumidityBarometerVisibility
12:00 AM
Wed, May 25
53 °FCool.N/A91%29.89 "Hg31 mi
11:00 PM
Tue, May 24
54 °FPassing clouds.N/A89%29.88 "Hg31 mi
10:00 PM56 °FOvercast.N/A82%29.86 "Hg31 mi
9:00 PM58 °FOvercast.N/A72%29.83 "Hg31 mi
8:00 PM60 °FOvercast.N/A68%29.81 "Hg28 mi
7:00 PM60 °FOvercast.N/A63%29.80 "Hg28 mi
6:00 PM60 °FOvercast.N/A63%29.78 "Hg28 mi
5:00 PM60 °FOvercast.N/A63%29.78 "Hg25 mi
4:00 PM61 °FOvercast.N/A61%29.78 "Hg22 mi
3:00 PM60 °FOvercast.N/A61%29.78 "Hg25 mi
2:00 PM60 °FPartly sunny.N/A63%29.78 "Hg22 mi
1:00 PM58 °FPartly sunny.N/A67%29.80 "Hg19 mi
12:00 PM55 °FLow clouds.N/A78%29.81 "Hg19 mi
11:00 AM53 °FLow clouds.N/A81%29.81 "Hg18 mi
10:00 AM51 °FLight rain. Low clouds.N/A87%29.81 "Hg13 mi
9:00 AM50 °FLight rain. Low clouds.N/A92%29.81 "Hg12 mi
8:00 AM50 °FLight rain. Low clouds.N/A93%29.80 "Hg14 mi
7:00 AM49 °FLight rain. Low clouds.N/A93%29.78 "Hg7 mi
6:00 AM50 °FHeavy rain. Low clouds.N/A94%29.77 "Hg6 mi
5:00 AM50 °FHeavy rain. Low clouds.N/A94%29.75 "Hg8 mi
4:00 AM51 °FRain. Low clouds.N/A96%29.76 "Hg3 mi
3:00 AM51 °FHeavy rain. Low clouds.N/A94%29.76 "Hg4 mi
2:00 AM51 °FHeavy rain. Overcast.N/A95%29.76 "Hg4 mi
Weather by CustomWeather, © 2016

See weather overviewHow to use our weather pages